Wind_Speed
17 16 16 16 15 15 14 14 13 13 12 13 12 12 11 11 11 10 10 10 9 9 9 8 7 7 6 6 6 6 5 5 5 5 4 4 3 3 3 2 1 1 1
18 18 18 17 17 17 16 15 15 14 14 14 14 14 13 13 12 12 12 11 11 11 11 10 9 8 7 7 7 7 6 6 6 6 5 5 5 4 4 4 3 3 2
20 20 20 19 19 18 18 17 16 16 15 15 15 16 15 15 15 14 13 13 13 12 12 11 10 10 9 9 8 8 8 8 8 8 7 7 7 6 6 5 5 4 4
22 22 22 21 21 20 19 19 18 18 17 17 16 17 17 17 16 16 15 15 15 14 14 13 12 12 11 11 10 10 9 9 9 9 9 9 8 8 7 7 6 6 5
23 23 23 23 22 22 21 20 20 20 19 19 18 19 19 18 18 18 18 17 17 16 16 15 14 14 13 13 12 12 11 11 11 11 11 10 10 9 9 8 8 7 7
23 24 24 24 24 23 23 22 22 21 21 20 20 20 20 20 20 20 20 19 19 18 17 17 16 16 15 15 15 14 14 13 13 13 12 12 12 11 10 10 10 9 9
24 25 25 26 26 25 25 24 24 23 23 22 22 22 21 21 21 21 22 21 20 20 19 19 19 18 18 17 17 17 16 16 15 15 14 14 13 13 12 12 11 11 11
25 25 25 27 26 27 26 26 26 25 25 24 24 23 22 22 22 22 22 23 22 21 21 20 20 20 20 19 19 19 18 18 18 17 16 15 15 15 14 13 13 12 12
27 27 27 27 27 27 28 27 27 27 27 27 26 26 25 24 23 23 24 23 23 23 23 22 22 22 22 22 21 20 20 19 19 19 18 17 17 16 16 15 15 14 14
29 29 29 29 28 29 29 29 29 28 28 28 28 28 27 26 25 25 24 24 24 24 23 23 23 23 24 23 23 23 22 21 20 20 19 19 19 19 18 18 17 17 16
31 31 31 30 30 30 30 31 31 30 30 30 30 30 29 28 27 26 25 26 26 26 25 24 24 24 25 25 24 24 24 23 23 22 21 21 21 20 20 20 20 19 19
32 32 33 32 32 32 31 32 33 32 32 32 32 32 31 31 30 29 28 27 28 28 28 27 27 27 26 26 26 26 25 24 25 24 23 23 23 22 22 22 22 22 22
34 34 34 34 34 34 33 33 33 34 34 34 34 34 34 33 32 30 30 29 29 29 30 30 30 29 29 28 28 28 27 26 26 25 25 25 25 25 25 25 25 24 24
36 36 36 36 36 36 35 35 35 34 35 35 35 35 34 34 33 33 32 31 31 31 31 31 31 30 30 30 30 30 30 29 29 28 27 27 27 26 26 26 26 26 26
39 38 38 38 38 38 38 37 36 36 37 37 37 37 36 36 35 35 34 34 34 33 34 33 32 32 32 32 32 32 31 31 31 30 29 29 28 28 28 27 27 27 27
40 40 40 40 40 40 40 40 39 39 39 39 39 39 38 38 38 38 37 37 37 36 36 35 35 34 34 34 34 34 34 33 32 32 31 30 29 29 29 29 28 28 29
41 41 42 42 42 42 42 42 41 41 41 40 40 41 41 40 41 40 39 39 39 38 38 37 37 36 35 35 35 35 35 35 34 34 33 33 32 32 31 31 31 31 30
41 42 42 43 43 43 43 44 43 43 43 42 42 42 43 43 42 42 41 40 40 40 39 39 39 38 38 37 36 36 36 36 36 35 35 35 34 34 34 33 33 33 32
41 42 43 44 44 44 45 45 46 45 44 44 44 44 44 44 43 43 43 42 42 41 41 40 40 40 40 39 39 38 38 37 37 36 36 36 36 36 36 36 36 36 35
42 42 44 45 46 46 46 47 48 48 47 46 45 45 45 46 45 44 44 44 44 44 44 43 42 42 42 42 41 41 40 39 39 39 39 38 38 38 38 38 37 37 37
42 42 43 45 46 46 47 48 49 49 48 48 47 47 47 47 47 46 46 46 47 46 46 46 45 45 44 44 43 43 42 42 41 41 41 40 40 39 39 39 39 38 38
43 43 43 43 45 45 46 46 47 49 49 48 48 49 48 49 50 49 49 48 49 49 48 48 47 46 46 46 45 45 44 44 43 43 43 43 42 42 41 40 40 40 39
43 44 44 43 44 44 45 45 46 48 49 48 49 49 49 50 51 52 51 50 50 50 49 49 49 48 48 48 47 46 46 46 46 45 45 44 44 44 43 43 42 42 42
43 43 44 44 44 46 46 46 46 47 48 48 49 50 50 50 51 53 53 52 52 52 51 50 51 50 50 50 49 48 48 47 47 46 46 46 46 46 45 45 44 44 44
42 43 43 44 45 46 46 47 47 47 48 49 49 50 50 51 52 53 54 54 54 54 54 53 52 52 51 51 51 50 49 49 48 48 48 48 48 47 47 46 46 46 46
43 44 43 43 44 46 46 47 48 49 49 49 50 50 51 51 52 53 54 55 55 55 55 55 54 54 54 54 53 52 52 51 50 49 49 49 49 49 49 48 48 48 49
Wind_Direction
248 248 249 248 247 246 248 248 248 246 244 242 240 237 238 238 238 238 238 236 235 235 236 236 231 226 224 222 221 222 221 217 216 216 215 217 224 229 232 235 245 275 321
249 249 249 248 248 248 249 248 247 248 246 243 242 241 239 239 239 237 237 237 235 235 235 236 234 230 231 232 231 230 229 230 226 227 228 229 231 234 236 240 250 262 277
248 249 249 249 250 251 251 248 247 246 247 245 243 242 241 240 239 238 237 236 235 235 236 237 236 234 238 239 239 239 239 237 235 236 238 239 240 240 240 242 247 255 265
248 249 250 250 250 250 251 249 247 247 247 245 244 243 242 241 239 238 236 235 234 235 237 238 238 239 241 244 245 244 245 243 242 243 245 247 247 247 244 245 248 254 262
248 248 249 250 250 250 250 249 248 248 247 246 245 245 243 242 240 237 236 235 235 236 238 239 240 240 242 244 246 246 247 247 248 248 249 250 250 250 249 249 251 254 258
251 250 248 250 250 250 250 249 248 247 247 246 245 246 245 243 241 239 236 236 236 237 240 240 240 241 242 244 245 247 249 250 252 252 252 252 251 252 253 253 253 255 255
253 252 250 250 249 249 249 248 248 248 247 246 246 245 245 243 242 240 239 239 239 239 241 242 241 242 243 244 246 248 250 253 254 255 255 254 253 252 253 255 257 256 255
252 252 251 251 250 249 248 248 248 248 247 246 245 243 243 242 242 241 241 241 240 240 241 243 242 243 244 245 246 249 251 255 254 255 255 254 253 252 252 254 255 257 257
253 252 252 251 251 250 249 248 248 248 247 245 245 245 244 244 243 241 241 241 242 243 243 244 244 244 245 247 248 249 251 255 256 253 253 253 254 253 252 252 254 256 257
255 254 252 251 250 249 248 248 247 247 247 246 246 246 245 245 245 245 242 242 243 244 244 245 245 246 247 247 249 250 252 254 255 252 252 252 253 252 252 252 253 255 256
256 256 254 252 250 248 247 248 247 247 247 247 247 247 245 245 245 245 244 243 244 245 245 246 246 247 248 248 249 250 251 253 253 251 251 251 253 253 254 255 256 256 258
256 256 255 252 250 249 248 248 248 248 246 246 248 247 245 245 245 245 244 244 245 246 247 247 248 248 250 250 250 250 251 252 252 251 252 252 253 253 255 256 257 258 259
256 255 255 253 250 248 247 247 247 247 246 246 247 247 247 246 244 244 244 245 245 246 247 247 248 249 250 251 251 251 252 252 253 253 254 254 254 254 255 257 258 258 259
256 255 254 253 251 248 247 247 247 247 247 247 247 247 247 247 246 245 245 245 245 246 247 247 248 249 250 251 251 251 252 252 253 254 255 256 256 255 256 257 258 258 259
256 255 254 253 252 250 248 247 247 247 248 248 248 247 247 247 247 247 246 246 246 247 247 248 249 249 251 252 251 252 252 252 253 254 255 256 256 257 257 258 259 260 260
256 255 254 253 253 251 249 248 247 248 248 247 247 247 247 247 247 247 247 247 247 247 248 249 249 250 251 252 252 252 252 252 253 254 255 255 256 258 259 260 261 262 262
257 256 255 254 253 252 251 249 249 248 248 247 247 247 246 247 247 247 247 248 248 248 249 250 250 250 251 252 253 252 252 252 252 254 255 256 257 258 259 260 261 262 264
257 256 255 255 254 252 252 251 250 250 249 249 248 247 246 247 247 247 247 248 248 249 250 250 250 250 251 252 253 253 253 252 252 253 254 256 257 258 258 260 261 263 264
258 257 256 255 254 253 252 251 251 250 250 250 250 249 247 246 247 247 248 248 248 249 250 251 250 251 251 252 253 254 253 253 253 254 255 255 256 257 259 260 261 263 264
259 257 256 255 255 255 254 252 251 251 251 251 251 251 249 248 247 246 247 248 248 249 250 250 251 251 251 252 253 253 254 254 254 254 256 257 257 258 259 260 260 261 262
260 259 258 257 256 255 255 253 252 251 250 251 251 252 252 250 249 248 248 248 248 249 250 251 251 252 252 252 253 253 254 255 255 255 256 257 258 259 260 260 260 260 260
259 259 259 258 258 256 254 253 253 252 251 251 251 251 252 251 251 250 249 249 249 250 251 251 252 252 252 253 253 253 254 255 256 256 257 257 258 258 259 260 260 259 259
259 259 258 257 257 256 254 253 252 250 250 251 251 251 252 252 251 251 250 250 250 250 251 252 252 252 253 253 254 254 254 255 255 256 257 258 258 259 260 260 260 260 260
260 258 258 257 257 257 255 253 252 251 250 250 250 251 252 252 251 251 250 250 250 250 250 251 252 253 253 253 254 254 255 256 256 257 257 257 258 259 259 260 260 261 261
259 258 258 258 257 257 256 254 253 252 252 252 251 251 250 251 251 251 251 250 251 251 251 252 253 253 253 254 255 256 256 257 257 258 258 258 258 258 259 260 260 261 262
259 258 258 258 257 257 257 256 255 254 254 253 252 251 251 251 251 251 251 251 251 251 251 252 253 253 254 255 255 256 257 258 258 258 258 258 258 258 258 259 261 262 262
Height
5826 5827 5828 5829 5830 5831 5833 5834 5835 5836 5837 5838 5839 5840 5841 5842 5844 5845 5846 5848 5849 5850 5851 5852 5853 5854 5854 5855 5857 5858 5858 5859 5860 5861 5862 5862 5863 5864 5864 5865 5865 5865 5866
5823 5824 5825 5826 5828 5829 5830 5831 5832 5833 5834 5835 5836 5838 5839 5840 5842 5843 5844 5846 5847 5848 5849 5851 5852 5853 5853 5855 5856 5857 5858 5858 5859 5860 5861 5862 5862 5863 5863 5864 5864 5865 5865
5820 5821 5822 5823 5824 5826 5827 5828 5829 5830 5831 5833 5834 5835 5836 5838 5839 5841 5842 5843 5845 5846 5847 5849 5850 5851 5852 5853 5854 5855 5856 5857 5858 5859 5860 5860 5861 5862 5863 5863 5864 5864 5864
5816 5817 5818 5820 5821 5822 5824 5825 5826 5827 5828 5829 5831 5832 5833 5835 5836 5838 5840 5841 5842 5844 5845 5847 5848 5849 5850 5852 5853 5854 5855 5856 5857 5857 5858 5859 5860 5860 5861 5862 5862 5863 5863
5812 5813 5815 5816 5817 5818 5820 5821 5822 5824 5825 5826 5827 5829 5830 5832 5833 5835 5837 5838 5840 5841 5843 5844 5846 5847 5848 5850 5851 5852 5853 5854 5855 5856 5856 5857 5858 5859 5860 5860 5861 5861 5862
5808 5809 5810 5812 5813 5814 5815 5817 5818 5819 5821 5822 5824 5825 5826 5828 5830 5831 5833 5835 5837 5838 5839 5841 5843 5844 5845 5847 5848 5849 5851 5852 5853 5854 5854 5855 5856 5857 5857 5858 5859 5860 5860
5803 5804 5806 5807 5808 5809 5811 5812 5814 5815 5816 5818 5820 5821 5823 5824 5826 5827 5829 5831 5833 5834 5836 5838 5839 5841 5842 5844 5845 5846 5848 5849 5850 5851 5852 5853 5854 5854 5855 5856 5857 5857 5858
5798 5799 5800 5802 5803 5804 5806 5807 5809 5810 5812 5813 5815 5817 5818 5820 5821 5823 5825 5827 5828 5830 5832 5834 5835 5837 5839 5840 5842 5843 5844 5845 5847 5848 5849 5850 5851 5852 5853 5853 5854 5855 5855
5793 5794 5795 5796 5798 5799 5801 5802 5803 5805 5806 5808 5810 5812 5813 5815 5817 5819 5820 5822 5824 5826 5828 5830 5831 5833 5835 5836 5838 5839 5840 5842 5843 5844 5845 5846 5847 5848 5849 5850 5851 5852 5853
5787 5788 5789 5791 5792 5793 5795 5796 5798 5799 5801 5803 5804 5806 5808 5810 5812 5814 5816 5818 5820 5821 5823 5825 5827 5828 5830 5832 5833 5835 5836 5838 5839 5840 5841 5843 5844 5845 5846 5847 5848 5848 5849
5780 5782 5783 5784 5786 5787 5789 5790 5792 5793 5795 5796 5798 5800 5802 5804 5806 5808 5810 5813 5815 5816 5818 5820 5822 5824 5825 5827 5829 5830 5832 5833 5834 5836 5837 5838 5839 5841 5842 5843 5844 5845 5845
5773 5775 5776 5777 5778 5780 5781 5783 5785 5787 5788 5790 5792 5794 5796 5798 5800 5803 5805 5807 5809 5811 5813 5815 5817 5818 5820 5822 5824 5825 5827 5828 5830 5831 5832 5834 5835 5836 5837 5838 5839 5840 5841
5765 5767 5768 5769 5771 5772 5774 5775 5777 5779 5781 5783 5785 5787 5789 5791 5794 5796 5798 5800 5803 5805 5807 5809 5811 5813 5815 5816 5818 5820 5822 5823 5824 5826 5827 5829 5830 5831 5832 5833 5834 5835 5836
5757 5758 5759 5761 5762 5764 5766 5767 5769 5771 5773 5775 5777 5780 5782 5784 5787 5789 5791 5794 5796 5798 5801 5803 5805 5807 5809 5810 5812 5814 5816 5817 5819 5820 5822 5823 5824 5825 5826 5827 5828 5829 5830
5747 5749 5750 5752 5753 5755 5757 5759 5760 5763 5765 5767 5769 5772 5774 5777 5779 5782 5784 5787 5789 5791 5794 5796 5798 5800 5802 5804 5805 5807 5809 5811 5812 5814 5815 5817 5818 5819 5820 5821 5822 5823 5824
5738 5739 5741 5742 5744 5746 5748 5750 5752 5754 5756 5758 5760 5763 5765 5768 5771 5774 5776 5779 5781 5783 5786 5788 5790 5793 5795 5797 5798 5800 5802 5803 5805 5807 5809 5810 5811 5812 5813 5815 5816 5817 5817
5728 5730 5731 5732 5734 5736 5738 5740 5742 5744 5747 5749 5751 5753 5756 5759 5762 5765 5767 5770 5773 5775 5777 5780 5782 5785 5787 5789 5790 5792 5794 5796 5798 5799 5801 5803 5804 5805 5807 5808 5809 5810 5811
5718 5719 5721 5722 5724 5726 5728 5730 5732 5734 5737 5739 5741 5743 5746 5749 5752 5755 5758 5761 5764 5766 5769 5771 5774 5776 5778 5780 5782 5784 5786 5788 5790 5792 5793 5795 5796 5798 5799 5800 5802 5803 5803
5708 5709 5710 5711 5713 5715 5717 5719 5721 5724 5726 5728 5731 5733 5736 5739 5742 5745 5748 5751 5754 5757 5759 5762 5764 5767 5769 5771 5774 5776 5777 5779 5781 5783 5785 5787 5788 5789 5791 5792 5793 5795 5795
5697 5698 5699 5700 5702 5704 5706 5708 5710 5712 5715 5718 5720 5722 5725 5728 5731 5735 5738 5741 5744 5747 5749 5752 5754 5757 5760 5762 5764 5766 5768 5770 5772 5774 5776 5778 5779 5781 5782 5783 5784 5786 5787
5686 5687 5687 5688 5690 5691 5693 5696 5698 5701 5704 5707 5709 5712 5714 5717 5720 5723 5727 5730 5733 5736 5739 5741 5744 5747 5749 5751 5754 5756 5758 5760 5762 5764 5766 5768 5770 5771 5772 5774 5775 5777 5778
5675 5675 5676 5677 5678 5680 5682 5684 5687 5689 5692 5695 5697 5700 5702 5705 5708 5712 5715 5719 5722 5725 5727 5730 5733 5735 5738 5741 5743 5745 5747 5750 5752 5754 5756 5758 5760 5761 5762 5764 5765 5767 5768
5664 5664 5665 5666 5667 5668 5670 5672 5674 5677 5679 5682 5685 5688 5691 5693 5696 5699 5703 5706 5709 5713 5716 5718 5721 5723 5726 5729 5731 5734 5736 5739 5741 5744 5745 5747 5749 5750 5752 5753 5755 5756 5758
5653 5653 5654 5655 5656 5657 5659 5660 5662 5665 5668 5670 5673 5675 5678 5681 5683 5686 5690 5693 5697 5700 5703 5706 5709 5711 5714 5717 5719 5722 5724 5727 5729 5732 5734 5736 5737 5739 5741 5742 5744 5745 5747
5641 5642 5643 5644 5644 5645 5647 5649 5651 5653 5655 5657 5660 5663 5665 5668 5670 5673 5677 5680 5683 5687 5690 5693 5696 5698 5701 5704 5706 5709 5711 5714 5717 5720 5722 5724 5725 5727 5729 5731 5732 5734 5735
5630 5631 5632 5633 5633 5634 5635 5637 5638 5640 5642 5645 5647 5650 5652 5655 5657 5660 5663 5666 5669 5673 5676 5680 5682 5685 5688 5690 5693 5696 5698 5701 5704 5706 5709 5711 5713 5715 5716 5718 5720 5722 5723